Weather History for KCPS - October, 2012

Change the Weather History Date:

Saturday, October 6, 2012

  Actual Average Record
Temperature  
Mean Temperature 44 °F -  
Max Temperature 50 °F 66 °F 91 °F (2007)
Min Temperature 37 °F 51 °F 34 °F (2004)
Degree Days  
Heating Degree Days 22    
Moisture  
Dew Point 33 °F    
Average Humidity 67    
Maximum Humidity 89    
Minimum Humidity 46    
Precipitation  
Precipitation 0.00 in - - ()
Sea Level Pressure  
Sea Level Pressure 30.24 in    
Wind  
Wind Speed 6 mph (NW)    
Max Wind Speed 14 mph    
Max Gust Speed -    
Visibility 10 miles    
Events      
Averages and records for this station are not official NWS values.
T = Trace of Precipitation, MM = Missing Value Source: NWS Daily Summary

Daily Weather History Graph

Daily Weather History Graph

Search for Another Location

Airport or City:

Trip Planner

Search our weather history database for the weather conditions in past years. The results will help you decide how hot, cold, wet, or windy it might be!

Date:

Astronomy

Oct. 06, 2012 Rise Set
Actual Time 7:01 AM CDT 6:34 PM CDT
Civil Twilight 6:35 AM CDT 7:01 PM CDT
Nautical Twilight 6:04 AM CDT 7:32 PM CDT
Astronomical Twilight 5:33 AM CDT 8:02 PM CDT
Moon 10:53 PM CDT (10/6) 12:52 PM CDT (10/6)
Length of Visible Light 12h 26m
Length of Day
11h 33m
Waning Gibbous, 65% of the Moon is Illuminated
Oct 6
Waning Gibbous
Oct 8
Last Quarter
Oct 15
New
Oct 21
First Quarter
Oct 29
Full

Hourly Weather History & Observations

Time (CDT) Temp. Windchill Dew Point Humidity Pressure Visibility Wind Dir Wind Speed Gust Speed Precip Events Conditions
12:53 AM 39.0 °F 34.8 °F 35.1 °F 86% 30.22 in 10.0 mi NW 5.8 mph - N/A   Clear
1:53 AM 39.9 °F 36.7 °F 35.1 °F 83% 30.24 in 10.0 mi West 4.6 mph - N/A   Clear
2:53 AM 37.9 °F 35.5 °F 35.1 °F 89% 30.23 in 10.0 mi WSW 3.5 mph - N/A   Clear
3:53 AM 37.0 °F - 33.1 °F 86% 30.22 in 10.0 mi Calm Calm - N/A   Clear
4:53 AM 37.9 °F 34.4 °F 34.0 °F 86% 30.24 in 10.0 mi West 4.6 mph - N/A   Clear
5:53 AM 39.9 °F 33.4 °F 34.0 °F 79% 30.25 in 10.0 mi NW 10.4 mph - N/A   Clear
6:53 AM 39.9 °F 35.8 °F 34.0 °F 79% 30.25 in 10.0 mi North 5.8 mph - N/A   Clear
7:53 AM 41.0 °F 35.2 °F 34.0 °F 76% 30.25 in 10.0 mi North 9.2 mph - N/A   Clear
10:53 AM 48.0 °F - 32.0 °F 54% 30.27 in 10.0 mi North 5.8 mph - N/A   Clear
11:53 AM 48.9 °F - 32.0 °F 52% 30.27 in 10.0 mi NNW 8.1 mph - N/A   Clear
12:53 PM 48.9 °F - 30.9 °F 50% 30.26 in 10.0 mi NW 8.1 mph - N/A   Mostly Cloudy
2:53 PM 50.0 °F - 30.0 °F 46% 30.23 in 10.0 mi WNW 8.1 mph - N/A   Overcast
4:53 PM 48.9 °F - 32.0 °F 52% 30.22 in 10.0 mi NNW 8.1 mph - N/A   Scattered Clouds
5:53 PM 48.0 °F - 32.0 °F 54% 30.22 in 10.0 mi NW 9.2 mph - N/A   Overcast
6:53 PM 46.9 °F - 32.0 °F 56% 30.22 in 10.0 mi North 9.2 mph - N/A   Partly Cloudy
7:53 PM 46.0 °F 39.9 °F 30.9 °F 56% 30.25 in 10.0 mi NNW 13.8 mph - N/A   Scattered Clouds
9:53 PM 45.0 °F 40.1 °F 30.9 °F 58% 30.27 in 10.0 mi North 9.2 mph - N/A   Mostly Cloudy
10:53 PM 43.0 °F 38.8 °F 32.0 °F 65% 30.26 in 10.0 mi NNW 6.9 mph - N/A   Overcast
11:53 PM 43.0 °F 38.2 °F 30.9 °F 62% 30.25 in 10.0 mi NNW 8.1 mph - N/A   Overcast